Time,TemperatureF,DewpointF,PressureIn,WindDirection,WindDirectionDegrees,WindSpeedMPH,WindSpeedGustMPH,Humidity,HourlyPrecipIn,Conditions,Clouds,dailyrainin,SoftwareType,DateUTC
2013-01-16 00:03:00,24.0,21.0,30.11,ENE,61,0.0,0.0,88,0.00,,,0.00,,2013-01-16 05:03:00,
2013-01-16 00:12:00,24.0,21.0,30.11,ENE,61,0.0,0.0,88,0.00,,,0.00,,2013-01-16 05:12:00,
2013-01-16 00:23:00,24.0,21.0,30.11,NE,55,1.0,3.0,88,0.00,,,0.00,,2013-01-16 05:23:00,
2013-01-16 00:32:00,25.0,22.0,30.10,NW,320,0.0,3.0,87,0.00,,,0.00,,2013-01-16 05:32:00,
2013-01-16 00:42:00,25.0,22.0,30.10,NW,320,0.0,3.0,87,0.00,,,0.00,,2013-01-16 05:42:00,
2013-01-16 00:53:00,24.0,20.0,30.09,NW,320,0.0,0.0,86,0.00,,,0.00,,2013-01-16 05:53:00,
2013-01-16 01:03:00,24.0,21.0,30.08,NW,320,0.0,1.0,87,0.00,,,0.00,,2013-01-16 06:03:00,
2013-01-16 01:12:00,24.0,21.0,30.08,NW,320,0.0,1.0,87,0.00,,,0.00,,2013-01-16 06:12:00,
2013-01-16 01:22:00,24.0,21.0,30.08,NW,320,0.0,2.0,88,0.00,,,0.00,,2013-01-16 06:22:00,
2013-01-16 01:32:00,24.0,21.0,30.08,NW,320,0.0,0.0,88,0.00,,,0.00,,2013-01-16 06:32:00,
2013-01-16 01:43:00,24.0,21.0,30.08,NW,320,0.0,0.0,88,0.00,,,0.00,,2013-01-16 06:43:00,
2013-01-16 01:53:00,23.0,20.0,30.08,NW,320,1.0,2.0,88,0.00,,,0.00,,2013-01-16 06:53:00,
2013-01-16 02:02:00,24.0,22.0,30.08,NW,321,0.0,3.0,90,0.00,,,0.00,,2013-01-16 07:02:00,
2013-01-16 02:12:00,24.0,22.0,30.08,NW,321,0.0,3.0,90,0.00,,,0.00,,2013-01-16 07:12:00,
2013-01-16 02:22:00,23.0,21.0,30.07,NW,321,1.0,2.0,90,0.00,,,0.00,,2013-01-16 07:22:00,
2013-01-16 02:33:00,23.0,21.0,30.06,NNW,329,1.0,3.0,90,0.00,,,0.00,,2013-01-16 07:33:00,
2013-01-16 02:42:00,23.0,21.0,30.06,NNW,329,1.0,3.0,90,0.00,,,0.00,,2013-01-16 07:42:00,
2013-01-16 02:52:00,24.0,21.0,30.06,NNW,341,0.0,2.0,89,0.00,,,0.00,,2013-01-16 07:52:00,
2013-01-16 03:02:00,24.0,21.0,30.06,NNW,341,1.0,3.0,89,0.00,,,0.00,,2013-01-16 08:02:00,
2013-01-16 03:12:00,24.0,21.0,30.06,NNW,341,1.0,3.0,89,0.00,,,0.00,,2013-01-16 08:12:00,
2013-01-16 03:22:00,23.0,20.0,30.05,North,355,1.0,2.0,89,0.00,,,0.00,,2013-01-16 08:22:00,
2013-01-16 03:32:00,23.0,20.0,30.04,North,355,0.0,2.0,89,0.00,,,0.00,,2013-01-16 08:32:00,
2013-01-16 03:42:00,23.0,20.0,30.04,North,355,0.0,2.0,89,0.00,,,0.00,,2013-01-16 08:42:00,
2013-01-16 03:53:00,23.0,21.0,30.05,North,355,0.0,0.0,90,0.00,,,0.00,,2013-01-16 08:53:00,
2013-01-16 04:02:00,23.0,21.0,30.05,North,355,1.0,2.0,90,0.00,,,0.00,,2013-01-16 09:02:00,
2013-01-16 04:12:00,23.0,21.0,30.05,North,355,1.0,2.0,90,0.00,,,0.00,,2013-01-16 09:12:00,
2013-01-16 04:22:00,23.0,21.0,30.04,NNW,348,0.0,2.0,91,0.00,,,0.00,,2013-01-16 09:22:00,
2013-01-16 04:32:00,23.0,21.0,30.03,SSE,167,1.0,2.0,92,0.00,,,0.00,,2013-01-16 09:32:00,
2013-01-16 04:42:00,23.0,21.0,30.03,SSE,167,1.0,2.0,92,0.00,,,0.00,,2013-01-16 09:42:00,
2013-01-16 04:53:00,24.0,22.0,30.03,SSE,167,0.0,0.0,92,0.00,,,0.00,,2013-01-16 09:53:00,
2013-01-16 05:02:00,24.0,22.0,30.03,SSE,167,0.0,1.0,92,0.00,,,0.00,,2013-01-16 10:02:00,
2013-01-16 05:12:00,24.0,22.0,30.03,SSE,167,0.0,1.0,92,0.00,,,0.00,,2013-01-16 10:12:00,
2013-01-16 05:22:00,24.0,22.0,30.02,West,265,1.0,2.0,91,0.00,,,0.00,,2013-01-16 10:22:00,
2013-01-16 05:32:00,23.0,21.0,30.02,West,265,0.0,2.0,91,0.00,,,0.00,,2013-01-16 10:32:00,
2013-01-16 05:42:00,23.0,21.0,30.02,West,265,0.0,2.0,91,0.00,,,0.00,,2013-01-16 10:42:00,
2013-01-16 05:53:00,23.0,21.0,30.00,West,265,0.0,1.0,91,0.00,,,0.00,,2013-01-16 10:53:00,
2013-01-16 06:02:00,23.0,21.0,30.00,West,265,0.0,1.0,91,0.00,,,0.00,,2013-01-16 11:02:00,
2013-01-16 06:12:00,23.0,21.0,30.00,West,265,0.0,1.0,91,0.00,,,0.00,,2013-01-16 11:12:00,
2013-01-16 06:23:00,23.0,21.0,30.00,West,265,0.0,2.0,91,0.00,,,0.00,,2013-01-16 11:23:00,
2013-01-16 06:33:00,23.0,21.0,29.99,West,265,0.0,1.0,92,0.00,,,0.00,,2013-01-16 11:33:00,
2013-01-16 06:42:00,23.0,21.0,29.99,West,265,0.0,1.0,92,0.00,,,0.00,,2013-01-16 11:42:00,
2013-01-16 06:53:00,23.0,21.0,29.99,West,265,1.0,2.0,92,0.00,,,0.00,,2013-01-16 11:53:00,
2013-01-16 07:03:00,23.0,21.0,29.98,West,265,0.0,1.0,92,0.00,,,0.00,,2013-01-16 12:03:00,
2013-01-16 07:13:00,23.0,21.0,29.98,West,265,0.0,1.0,92,0.00,,,0.00,,2013-01-16 12:13:00,
2013-01-16 07:22:00,23.0,21.0,29.97,WSW,241,0.0,1.0,92,0.00,,,0.00,,2013-01-16 12:22:00,
2013-01-16 07:33:00,23.0,21.0,29.97,WSW,241,0.0,0.0,92,0.00,,,0.00,,2013-01-16 12:33:00,
2013-01-16 07:43:00,23.0,21.0,29.97,WSW,241,0.0,0.0,92,0.00,,,0.00,,2013-01-16 12:43:00,
2013-01-16 07:53:00,23.0,21.0,29.97,SSW,212,0.0,3.0,92,0.00,,,0.00,,2013-01-16 12:53:00,
2013-01-16 08:03:00,22.0,20.0,29.98,SSW,213,1.0,2.0,93,0.00,,,0.00,,2013-01-16 13:03:00,
2013-01-16 08:12:00,22.0,20.0,29.98,SSW,213,1.0,2.0,93,0.00,,,0.00,,2013-01-16 13:12:00,
2013-01-16 08:23:00,22.0,20.0,29.98,SW,216,2.0,3.0,93,0.00,,,0.00,,2013-01-16 13:23:00,
2013-01-16 08:33:00,22.0,20.0,29.97,SW,216,0.0,2.0,93,0.00,,,0.00,,2013-01-16 13:33:00,
2013-01-16 08:43:00,22.0,20.0,29.97,SW,216,0.0,2.0,93,0.00,,,0.00,,2013-01-16 13:43:00,
2013-01-16 08:53:00,22.0,20.0,29.97,South,177,1.0,2.0,93,0.00,,,0.00,,2013-01-16 13:53:00,
2013-01-16 09:03:00,23.0,21.0,29.98,SW,229,2.0,3.0,93,0.00,,,0.00,,2013-01-16 14:03:00,
2013-01-16 09:12:00,23.0,21.0,29.98,SW,229,2.0,3.0,93,0.00,,,0.00,,2013-01-16 14:12:00,
2013-01-16 09:23:00,23.0,21.0,29.98,WSW,240,2.0,4.0,93,0.00,,,0.00,,2013-01-16 14:23:00,
2013-01-16 09:33:00,24.0,22.0,29.98,SW,223,4.0,7.0,91,0.00,,,0.00,,2013-01-16 14:33:00,
2013-01-16 09:43:00,24.0,22.0,29.98,SW,223,4.0,7.0,91,0.00,,,0.00,,2013-01-16 14:43:00,
2013-01-16 09:53:00,25.0,22.0,30.00,WSW,243,5.0,12.0,89,0.00,,,0.00,,2013-01-16 14:53:00,
2013-01-16 10:03:00,26.0,23.0,30.00,SW,235,7.0,11.0,87,0.00,,,0.00,,2013-01-16 15:03:00,
2013-01-16 10:12:00,26.0,23.0,30.00,SW,235,7.0,11.0,87,0.00,,,0.00,,2013-01-16 15:12:00,
2013-01-16 10:23:00,26.0,22.0,29.99,SW,234,5.0,11.0,86,0.00,,,0.00,,2013-01-16 15:23:00,
2013-01-16 10:33:00,26.0,22.0,29.99,WSW,257,8.0,14.0,85,0.00,,,0.00,,2013-01-16 15:33:00,
2013-01-16 10:43:00,26.0,22.0,29.99,WSW,257,8.0,14.0,85,0.00,,,0.00,,2013-01-16 15:43:00,
2013-01-16 10:53:00,27.0,23.0,29.99,WSW,256,9.0,13.0,84,0.00,,,0.00,,2013-01-16 15:53:00,
2013-01-16 11:03:00,27.0,22.0,29.98,West,269,9.0,16.0,82,0.00,,,0.00,,2013-01-16 16:03:00,
2013-01-16 11:12:00,27.0,22.0,29.98,West,269,9.0,16.0,82,0.00,,,0.00,,2013-01-16 16:12:00,
2013-01-16 11:23:00,27.0,22.0,29.98,WSW,252,10.0,14.0,81,0.00,,,0.00,,2013-01-16 16:23:00,
2013-01-16 11:33:00,28.0,23.0,29.97,SW,236,8.0,16.0,80,0.00,,,0.00,,2013-01-16 16:33:00,
2013-01-16 11:43:00,28.0,23.0,29.97,SW,236,8.0,16.0,80,0.00,,,0.00,,2013-01-16 16:43:00,
2013-01-16 11:53:00,29.0,21.0,29.96,WSW,255,11.0,16.0,73,0.00,,,0.00,,2013-01-16 16:53:00,
2013-01-16 12:03:00,30.0,22.0,29.96,West,263,8.0,14.0,72,0.00,,,0.00,,2013-01-16 17:03:00,
2013-01-16 12:12:00,30.0,22.0,29.96,West,263,8.0,14.0,72,0.00,,,0.00,,2013-01-16 17:12:00,
2013-01-16 12:23:00,30.0,22.0,29.94,WSW,246,10.0,16.0,71,0.00,,,0.00,,2013-01-16 17:23:00,
2013-01-16 12:33:00,31.0,21.0,29.93,WSW,238,9.0,14.0,67,0.00,,,0.00,,2013-01-16 17:33:00,
2013-01-16 12:43:00,31.0,21.0,29.93,WSW,238,9.0,14.0,67,0.00,,,0.00,,2013-01-16 17:43:00,
2013-01-16 12:53:00,31.0,20.0,29.91,SSW,203,9.0,19.0,62,0.00,,,0.00,,2013-01-16 17:53:00,
2013-01-16 13:03:00,32.0,20.0,29.90,WSW,258,11.0,17.0,61,0.00,,,0.00,,2013-01-16 18:03:00,
2013-01-16 13:13:00,32.0,20.0,29.90,WSW,258,11.0,17.0,61,0.00,,,0.00,,2013-01-16 18:13:00,
2013-01-16 13:23:00,33.0,21.0,29.90,West,260,9.0,16.0,60,0.00,,,0.00,,2013-01-16 18:23:00,
2013-01-16 13:33:00,33.0,20.0,29.90,WSW,255,11.0,18.0,59,0.00,,,0.00,,2013-01-16 18:33:00,
2013-01-16 13:42:00,33.0,20.0,29.90,WSW,255,11.0,18.0,59,0.00,,,0.00,,2013-01-16 18:42:00,
2013-01-16 13:53:00,34.0,19.0,29.89,SW,215,12.0,18.0,54,0.00,,,0.00,,2013-01-16 18:53:00,
2013-01-16 14:03:00,34.0,20.0,29.88,SW,233,9.0,18.0,57,0.00,,,0.00,,2013-01-16 19:03:00,
2013-01-16 14:13:00,34.0,20.0,29.88,SW,233,9.0,18.0,57,0.00,,,0.00,,2013-01-16 19:13:00,
2013-01-16 14:23:00,34.0,20.0,29.88,WSW,251,13.0,22.0,55,0.00,,,0.00,,2013-01-16 19:23:00,
2013-01-16 14:33:00,34.0,20.0,29.89,WSW,240,12.0,23.0,55,0.00,,,0.00,,2013-01-16 19:33:00,
2013-01-16 14:43:00,34.0,20.0,29.89,WSW,240,12.0,23.0,55,0.00,,,0.00,,2013-01-16 19:43:00,
2013-01-16 14:53:00,35.0,21.0,29.89,WSW,247,15.0,22.0,56,0.00,,,0.00,,2013-01-16 19:53:00,
2013-01-16 15:03:00,35.0,20.0,29.88,SW,231,13.0,22.0,54,0.00,,,0.00,,2013-01-16 20:03:00,
2013-01-16 15:12:00,35.0,20.0,29.88,SW,231,13.0,22.0,54,0.00,,,0.00,,2013-01-16 20:12:00,
2013-01-16 15:23:00,35.0,20.0,29.88,WSW,238,9.0,23.0,55,0.00,,,0.00,,2013-01-16 20:23:00,
2013-01-16 15:33:00,35.0,20.0,29.88,SW,232,13.0,19.0,55,0.00,,,0.00,,2013-01-16 20:33:00,
2013-01-16 15:43:00,35.0,20.0,29.88,SW,232,13.0,19.0,55,0.00,,,0.00,,2013-01-16 20:43:00,
2013-01-16 15:53:00,36.0,21.0,29.87,WSW,254,10.0,18.0,55,0.00,,,0.00,,2013-01-16 20:53:00,
2013-01-16 16:03:00,35.0,20.0,29.87,WSW,248,12.0,26.0,55,0.00,,,0.00,,2013-01-16 21:03:00,
2013-01-16 16:12:00,35.0,20.0,29.87,WSW,248,12.0,26.0,55,0.00,,,0.00,,2013-01-16 21:12:00,
2013-01-16 16:23:00,36.0,22.0,29.88,WSW,238,10.0,22.0,56,0.00,,,0.00,,2013-01-16 21:23:00,
2013-01-16 16:33:00,36.0,22.0,29.88,SW,236,10.0,21.0,57,0.00,,,0.00,,2013-01-16 21:33:00,
2013-01-16 16:43:00,36.0,22.0,29.88,SW,236,10.0,21.0,57,0.00,,,0.00,,2013-01-16 21:43:00,
2013-01-16 16:53:00,35.0,21.0,29.88,WSW,247,8.0,22.0,57,0.00,,,0.00,,2013-01-16 21:53:00,
2013-01-16 17:03:00,35.0,22.0,29.90,West,270,13.0,18.0,59,0.00,,,0.00,,2013-01-16 22:03:00,
2013-01-16 17:12:00,35.0,22.0,29.90,West,270,13.0,18.0,59,0.00,,,0.00,,2013-01-16 22:12:00,
2013-01-16 17:23:00,35.0,23.0,29.91,West,270,11.0,22.0,60,0.00,,,0.00,,2013-01-16 22:23:00,
2013-01-16 17:33:00,35.0,23.0,29.91,SW,225,10.0,20.0,62,0.00,,,0.00,,2013-01-16 22:33:00,
2013-01-16 17:43:00,35.0,23.0,29.91,SW,225,10.0,20.0,62,0.00,,,0.00,,2013-01-16 22:43:00,
2013-01-16 17:53:00,34.0,23.0,29.91,WSW,242,10.0,17.0,64,0.00,,,0.00,,2013-01-16 22:53:00,
2013-01-16 18:03:00,34.0,23.0,29.91,WSW,242,12.0,19.0,64,0.00,,,0.00,,2013-01-16 23:03:00,
2013-01-16 18:12:00,34.0,23.0,29.92,WSW,242,8.0,17.0,65,0.00,,,0.00,,2013-01-16 23:12:00,
2013-01-16 18:23:00,34.0,23.0,29.92,WSW,242,8.0,17.0,65,0.00,,,0.00,,2013-01-16 23:23:00,
2013-01-16 18:32:00,34.0,24.0,29.93,WSW,237,9.0,16.0,66,0.00,,,0.00,,2013-01-16 23:32:00,
2013-01-16 18:42:00,34.0,24.0,29.93,WSW,237,9.0,16.0,66,0.00,,,0.00,,2013-01-16 23:42:00,
2013-01-16 18:53:00,34.0,25.0,29.92,SW,217,8.0,15.0,69,0.00,,,0.00,,2013-01-16 23:53:00,
2013-01-16 19:02:00,34.0,25.0,29.92,SW,217,8.0,20.0,69,0.00,,,0.00,,2013-01-17 00:02:00,
2013-01-16 19:12:00,34.0,25.0,29.92,SW,217,8.0,20.0,69,0.00,,,0.00,,2013-01-17 00:12:00,
2013-01-16 19:22:00,34.0,25.0,29.92,WSW,240,10.0,16.0,70,0.00,,,0.00,,2013-01-17 00:22:00,
2013-01-16 19:32:00,34.0,26.0,29.93,SW,223,10.0,20.0,71,0.00,,,0.00,,2013-01-17 00:32:00,
2013-01-16 19:42:00,34.0,26.0,29.93,SW,223,10.0,20.0,71,0.00,,,0.00,,2013-01-17 00:42:00,
2013-01-16 19:53:00,34.0,26.0,29.93,WSW,242,9.0,17.0,72,0.00,,,0.00,,2013-01-17 00:53:00,
2013-01-16 20:02:00,34.0,26.0,29.94,WSW,250,9.0,20.0,73,0.00,,,0.00,,2013-01-17 01:02:00,
2013-01-16 20:12:00,34.0,26.0,29.94,WSW,250,9.0,20.0,73,0.00,,,0.00,,2013-01-17 01:12:00,
2013-01-16 20:22:00,34.0,27.0,29.94,WSW,250,11.0,16.0,74,0.00,,,0.00,,2013-01-17 01:22:00,
2013-01-16 20:33:00,33.0,27.0,29.95,SW,221,9.0,17.0,77,0.00,,,0.00,,2013-01-17 01:33:00,
2013-01-16 20:42:00,33.0,27.0,29.95,SW,221,9.0,17.0,77,0.00,,,0.00,,2013-01-17 01:42:00,
2013-01-16 20:52:00,33.0,27.0,29.95,WSW,242,10.0,17.0,79,0.00,,,0.00,,2013-01-17 01:52:00,
2013-01-16 21:02:00,33.0,28.0,29.96,SW,227,9.0,13.0,80,0.00,,,0.00,,2013-01-17 02:02:00,
2013-01-16 21:12:00,33.0,28.0,29.96,SW,227,9.0,13.0,80,0.00,,,0.00,,2013-01-17 02:12:00,
2013-01-16 21:22:00,33.0,27.0,29.97,WSW,244,8.0,15.0,79,0.00,,,0.00,,2013-01-17 02:22:00,
2013-01-16 21:32:00,33.0,27.0,29.98,SW,233,11.0,17.0,78,0.00,,,0.00,,2013-01-17 02:32:00,
2013-01-16 21:42:00,33.0,27.0,29.98,SW,233,11.0,17.0,78,0.00,,,0.00,,2013-01-17 02:42:00,
2013-01-16 21:52:00,33.0,27.0,29.98,SW,233,11.0,17.0,78,0.00,,,0.00,,2013-01-17 02:52:00,
2013-01-16 22:03:00,33.0,27.0,29.98,WSW,244,9.0,17.0,79,0.00,,,0.00,,2013-01-17 03:03:00,
2013-01-16 22:12:00,33.0,27.0,29.98,WSW,244,9.0,17.0,79,0.00,,,0.00,,2013-01-17 03:12:00,
2013-01-16 22:22:00,33.0,27.0,29.98,SW,223,8.0,16.0,79,0.00,,,0.00,,2013-01-17 03:22:00,
2013-01-16 22:32:00,34.0,28.0,29.98,WSW,254,8.0,15.0,80,0.00,,,0.00,,2013-01-17 03:32:00,
2013-01-16 22:43:00,34.0,28.0,29.98,WSW,254,8.0,15.0,80,0.00,,,0.00,,2013-01-17 03:43:00,
2013-01-16 22:53:00,34.0,28.0,29.99,WSW,242,7.0,13.0,80,0.00,,,0.00,,2013-01-17 03:53:00,
2013-01-16 23:02:00,34.0,28.0,29.99,West,280,7.0,15.0,80,0.00,,,0.00,,2013-01-17 04:02:00,
2013-01-16 23:12:00,34.0,28.0,29.99,West,262,5.0,13.0,80,0.00,,,0.00,,2013-01-17 04:12:00,
2013-01-16 23:22:00,34.0,28.0,29.99,West,262,5.0,13.0,80,0.00,,,0.00,,2013-01-17 04:22:00,
2013-01-16 23:33:00,34.0,28.0,30.00,WSW,242,7.0,16.0,80,0.00,,,0.00,,2013-01-17 04:33:00,
2013-01-16 23:42:00,34.0,28.0,30.00,WSW,242,7.0,16.0,80,0.00,,,0.00,,2013-01-17 04:42:00,
2013-01-16 23:52:00,34.0,28.0,30.01,West,277,9.0,15.0,80,0.00,,,0.00,,2013-01-17 04:52:00,